Theta_e
311 311 311 312 312 312 312 312 313 312 312 312 312 312 312 312 310 301 295 300 304 313 312 306 305 301 302 300 303 307 297 294 297 298 296 302 302 304 307 312 316 319 319 321 325
310 311 311 311 311 311 312 312 312 312 312 312 312 312 311 311 300 294 303 309 313 313 303 301 299 300 295 297 299 297 293 295 302 303 300 301 302 303 304 307 305 309 315 323 323
310 310 310 311 311 311 311 312 312 311 312 312 312 311 311 306 290 289 307 312 312 308 302 302 302 299 292 294 294 295 290 299 303 305 305 302 302 305 303 299 304 304 313 318 320
309 310 310 310 310 311 311 311 311 311 312 312 312 311 311 300 282 294 308 311 310 306 300 298 297 292 289 288 293 289 295 297 302 305 304 302 304 302 303 301 307 311 317 318 318
309 309 309 309 310 310 311 311 311 312 312 311 311 310 302 291 291 301 308 306 305 302 298 296 293 292 288 288 291 289 293 298 304 307 304 305 301 302 304 302 311 316 318 319 318
309 309 309 309 310 310 311 311 312 312 311 311 311 310 296 286 300 302 301 302 303 302 300 298 295 296 291 289 287 291 289 296 300 305 307 301 301 304 304 306 304 310 317 317 319
309 309 309 309 309 310 310 311 312 311 310 310 310 305 295 291 302 303 303 303 305 303 299 301 300 295 293 289 294 289 286 294 299 304 305 307 301 298 303 306 303 302 306 316 317
308 309 309 309 309 309 310 311 310 308 309 310 310 300 290 303 303 303 306 304 307 306 303 303 302 297 293 295 290 289 291 289 298 303 305 303 295 301 304 302 303 304 304 306 317
308 308 308 309 309 309 310 309 307 306 307 310 299 294 288 302 296 302 306 302 304 303 304 304 300 294 294 287 283 287 285 287 294 303 301 301 295 302 305 304 302 303 303 305 305
308 308 308 308 308 309 310 305 304 300 298 301 298 288 291 290 296 301 305 305 299 300 294 296 293 286 288 284 278 281 286 290 290 299 301 297 296 301 304 302 303 303 304 304 304
308 308 308 308 308 309 299 289 285 283 289 284 285 287 290 294 299 300 302 300 299 294 288 291 286 282 284 285 285 284 290 291 295 300 296 296 296 298 302 303 302 304 304 304 304
307 308 308 308 307 305 294 288 287 288 283 289 290 291 293 294 292 296 300 293 291 287 290 286 282 288 289 287 287 287 288 289 295 298 296 295 295 298 300 302 303 303 304 303 303
307 307 307 307 307 297 292 290 297 295 283 285 287 287 289 292 292 292 296 293 290 288 286 280 286 291 288 287 287 286 286 289 287 294 296 294 291 294 298 301 303 303 304 304 302
306 306 307 306 294 293 290 296 297 290 270 278 282 287 290 290 288 296 297 292 289 285 288 285 289 290 289 287 287 283 289 293 291 290 284 291 282 287 294 296 299 300 302 304 303
306 305 306 300 291 289 292 296 295 285 264 278 282 292 290 288 289 290 295 291 286 285 284 283 286 287 284 286 286 284 291 293 291 285 286 285 282 284 291 292 295 297 297 297 301
305 305 303 296 293 292 295 290 286 272 263 276 281 282 283 285 287 289 289 291 290 284 284 283 289 287 286 287 288 288 287 286 284 284 278 281 282 282 285 288 289 290 290 292 293
305 305 299 295 287 294 293 285 271 266 275 270 277 281 281 281 283 284 283 283 282 273 274 280 282 287 288 285 288 287 282 274 273 272 275 280 281 282 285 287 288 288 288 289 292
304 304 300 296 294 292 285 275 264 261 263 278 280 280 278 280 282 281 281 277 284 285 280 273 273 283 288 284 282 283 282 273 267 270 275 281 278 280 285 287 287 288 288 290 290
301 291 291 294 294 287 279 264 267 264 276 278 278 272 271 279 279 279 276 275 281 286 280 277 273 285 286 287 285 282 278 282 276 268 273 275 279 284 286 286 287 288 289 289 290
290 287 288 293 291 283 272 272 267 276 281 280 269 273 263 270 273 273 276 279 279 285 287 284 274 282 285 286 286 283 284 277 275 266 266 273 275 275 281 282 285 285 287 289 291
288 280 288 292 286 277 268 265 267 279 282 279 274 267 274 269 269 273 275 280 280 282 284 284 280 277 282 283 282 282 280 280 278 276 271 270 272 278 281 283 283 285 286 287 288
283 273 287 288 273 265 264 265 280 281 282 279 278 279 275 276 272 272 275 278 282 281 280 286 284 279 281 286 285 284 281 280 274 274 275 276 273 281 282 286 287 286 286 286 288
278 275 287 285 269 267 274 268 277 279 280 279 276 279 280 278 270 277 275 282 282 281 280 285 274 266 271 277 282 282 284 283 281 279 276 271 273 283 286 287 287 286 287 287 289
276 272 276 279 275 271 270 266 269 281 281 282 281 281 277 275 274 271 277 281 283 282 287 285 278 272 270 274 279 280 284 285 280 272 276 276 276 281 285 284 285 286 287 287 288
273 272 273 271 272 272 270 271 270 270 279 281 278 279 276 270 274 272 274 278 281 283 281 276 266 274 277 277 279 280 281 283 282 280 277 277 278 283 282 282 283 284 287 287 287
278 274 275 268 275 274 271 268 274 276 277 275 274 279 278 273 275 272 278 276 275 279 277 279 263 268 265 274 275 276 278 278 280 282 284 283 282 281 283 282 281 283 285 285 285
283 281 279 280 274 271 271 272 276 279 280 281 279 279 278 278 280 280 280 280 280 277 270 270 260 259 259 265 267 264 271 277 278 278 279 277 279 280 281 282 282 282 283 283 284
Wind_Speed
7 9 10 10 11 12 13 13 13 14 14 15 16 16 17 18 17 4 3 5 6 14 12 9 3 3 1 3 6 3 10 21 24 22 3 0 4 1 1 5 3 2 2 6 15
7 9 10 12 12 13 14 14 14 14 15 16 17 16 16 15 5 5 6 6 8 11 6 7 5 4 2 3 3 8 14 27 15 10 7 4 3 8 4 4 2 1 6 8 17
8 9 10 12 14 14 14 16 16 15 16 16 15 14 13 6 3 3 5 9 6 5 2 2 3 2 2 0 4 5 19 16 19 9 11 9 3 1 9 3 3 4 6 11 13
7 9 10 12 14 15 16 17 16 15 15 15 13 11 8 4 4 4 4 7 7 5 4 4 4 1 3 4 2 11 17 20 18 6 6 8 8 3 3 5 4 5 9 15 13
7 9 10 12 14 16 17 18 17 16 15 13 10 6 3 5 7 7 9 8 4 2 3 3 3 3 5 4 3 11 14 12 15 8 2 10 5 7 5 2 8 9 7 11 7
7 8 10 12 14 17 18 19 19 17 16 13 7 5 3 4 5 6 7 6 10 8 6 6 5 5 5 5 7 4 16 16 12 15 7 9 2 7 1 5 14 13 10 5 5
7 9 10 13 15 17 19 20 20 19 16 8 1 3 2 10 2 6 6 8 14 11 13 7 4 5 4 4 5 5 12 16 13 9 7 2 3 4 5 4 9 15 11 9 7
8 10 12 14 16 18 21 21 22 15 8 5 7 2 6 5 3 9 4 6 7 5 7 8 3 5 2 3 6 9 9 5 3 15 3 12 8 3 6 7 8 11 8 3 8
8 10 13 14 16 19 21 22 15 8 4 7 4 2 8 7 5 8 1 5 6 1 1 2 3 4 4 0 3 8 3 6 2 3 5 4 6 3 4 7 6 5 5 2 7
10 11 13 14 16 19 21 15 8 4 5 3 3 2 4 9 5 7 4 3 1 4 5 3 5 3 3 3 2 3 3 3 4 4 4 15 3 4 3 8 2 3 8 9 7
10 11 13 14 14 17 10 5 7 5 9 2 5 4 7 9 5 8 5 4 2 6 4 5 3 2 2 2 9 13 1 7 5 5 7 4 3 3 4 6 10 3 5 8 6
9 11 11 12 9 12 4 6 1 3 4 2 6 6 6 1 5 11 9 4 4 6 2 2 1 3 4 1 9 12 4 3 5 8 10 6 3 5 1 3 7 7 5 9 8
8 9 10 11 3 6 4 2 3 4 3 6 5 5 7 3 4 7 7 5 5 8 8 4 5 4 4 5 9 6 7 6 7 6 8 7 5 2 2 1 4 5 7 12 10
6 8 10 3 5 1 3 5 2 3 8 7 7 3 6 3 4 4 2 2 6 4 6 3 8 8 7 0 3 6 5 10 14 5 3 2 1 3 0 3 5 9 3 10 15
5 5 6 4 4 2 2 4 3 4 6 7 9 7 10 6 6 10 2 4 3 4 3 3 5 7 4 7 5 1 4 12 7 5 5 5 5 3 6 5 5 6 6 3 10
3 4 2 3 3 0 2 1 3 11 6 4 4 8 8 7 9 8 7 5 1 4 5 2 4 5 5 5 5 1 8 7 4 4 5 4 2 5 5 5 3 5 7 8 8
4 4 2 2 2 1 3 4 7 8 5 7 4 6 5 7 8 9 7 12 8 8 9 8 3 7 5 7 8 9 7 5 7 7 1 5 4 3 9 8 6 6 7 7 8
5 3 2 2 1 3 4 7 7 3 5 4 2 4 4 7 5 9 4 7 8 5 5 5 9 9 10 4 3 4 4 5 4 2 2 5 5 5 4 4 5 6 5 9 11
4 2 2 1 2 4 7 4 9 8 5 2 2 6 6 4 3 6 5 3 5 8 4 6 6 5 1 3 2 6 6 2 7 3 4 4 2 2 10 13 12 12 10 10 9
3 2 1 2 3 5 7 6 3 4 4 2 4 3 2 5 4 5 4 3 5 3 3 2 4 3 6 3 3 5 1 4 5 3 3 4 4 1 9 10 10 13 11 10 9
4 3 2 4 4 6 5 7 4 4 1 3 4 2 3 1 2 1 1 2 4 7 5 1 4 7 4 7 4 7 5 4 5 3 4 3 1 1 4 5 7 8 8 8 9
4 1 2 2 6 3 3 6 3 3 2 3 3 3 4 3 1 0 2 2 6 4 3 3 2 2 2 0 2 1 2 2 5 2 1 2 3 2 4 5 6 7 8 8 6
4 3 1 2 4 1 1 3 1 3 4 5 2 3 3 2 2 1 2 3 5 5 2 4 4 3 7 5 5 4 3 3 3 2 0 4 4 3 6 9 8 8 8 7 8
4 1 4 4 1 9 6 3 2 2 2 3 2 3 3 2 3 3 0 2 5 5 7 1 3 3 5 3 1 2 1 1 3 3 3 3 1 2 9 7 8 11 10 8 7
2 5 4 4 5 5 4 5 6 4 0 3 1 4 5 3 2 1 1 2 1 9 4 4 4 3 3 4 2 1 2 1 3 3 3 1 2 4 4 4 6 6 8 12 13
7 5 1 2 3 8 1 7 10 4 8 4 4 6 4 4 5 6 3 2 1 5 4 5 1 2 4 7 5 3 4 4 2 1 4 3 5 2 3 5 7 7 8 8 9
2 1 4 6 4 5 7 8 10 10 2 2 6 6 4 4 4 4 5 5 3 3 3 5 4 5 5 5 6 7 6 4 3 2 5 5 2 2 3 5 4 5 6 6 8
Wind_Direction
346 342 342 340 342 341 337 334 339 335 333 331 329 330 327 326 331 334 324 238 296 315 355 323 5 5 162 204 182 316 243 226 222 219 161 115 140 335 23 115 71 92 44 148 133
342 340 340 338 335 337 333 332 331 332 330 330 329 330 328 331 343 322 232 256 1 4 6 343 332 12 359 251 199 196 247 238 229 213 184 187 197 152 118 142 73 60 28 116 145
339 338 335 333 329 327 329 327 328 332 327 327 328 331 329 1 347 288 313 235 357 2 341 280 306 355 265 51 220 248 250 265 243 219 159 156 145 280 148 68 163 205 120 150 162
334 333 334 331 325 325 327 322 324 326 324 325 327 331 349 356 16 267 281 287 309 329 351 343 26 267 249 240 269 251 258 258 273 234 137 158 139 98 334 140 244 263 127 156 169
330 337 333 332 325 324 322 320 322 323 321 321 321 0 36 11 257 250 280 290 285 215 219 268 234 202 227 238 240 252 269 275 270 262 133 122 123 156 132 170 58 77 72 111 144
332 335 330 330 325 323 321 321 320 320 316 311 308 116 75 328 239 268 277 279 249 249 253 191 232 213 269 229 216 263 309 282 262 228 156 116 124 143 161 282 71 59 86 110 159
325 330 330 327 325 322 321 319 316 317 309 294 232 121 145 239 237 321 286 274 277 262 251 222 205 221 197 274 260 235 285 305 257 226 164 216 78 48 307 184 68 69 55 2 208
325 328 328 328 326 324 321 317 317 314 299 258 148 96 253 265 309 290 262 309 343 265 241 239 164 256 246 358 360 275 234 243 208 201 253 153 187 137 357 34 53 68 55 21 275
320 325 323 329 326 325 320 319 312 312 332 144 100 140 278 306 352 307 282 291 305 22 139 6 149 231 175 4 355 192 193 210 134 199 129 138 225 114 316 51 17 39 100 343 253
315 322 323 327 328 325 321 323 308 37 8 70 80 63 315 315 312 290 270 258 291 43 20 159 201 151 45 103 265 112 288 46 114 151 117 179 284 52 6 34 356 336 4 263 330
314 324 322 325 334 332 347 12 15 354 36 73 299 255 283 299 290 315 349 316 215 73 56 321 291 67 119 287 283 304 230 85 21 127 77 37 122 141 48 343 320 4 270 303 259
317 324 327 328 347 1 37 67 70 192 322 304 267 270 259 270 307 323 18 29 29 27 39 228 55 52 96 231 258 278 186 66 56 36 76 76 230 341 198 210 285 294 288 323 321
319 329 327 321 357 38 73 43 284 158 89 309 286 286 297 11 286 293 25 321 30 36 25 80 271 174 159 194 237 234 134 130 70 23 40 96 354 244 283 242 317 294 338 315 293
315 331 343 358 47 301 51 317 303 138 71 319 338 317 339 353 286 281 51 320 18 32 323 27 334 51 354 293 12 81 326 125 149 173 125 314 161 27 216 199 213 281 189 306 312
306 339 14 50 145 61 325 300 217 50 39 309 307 301 316 51 314 336 1 0 55 315 50 14 11 355 14 332 339 353 45 111 134 113 111 22 54 323 28 359 297 318 21 340 260
316 331 26 36 54 331 353 261 359 47 261 358 312 349 353 18 343 309 3 21 269 11 19 28 314 23 303 310 356 238 62 43 68 55 55 349 81 18 27 349 41 20 29 352 360
336 326 90 112 191 227 86 28 36 114 344 309 348 351 313 349 344 358 28 39 24 37 359 334 6 333 30 346 18 37 38 20 14 22 155 336 62 59 342 360 27 15 10 1 12
350 103 35 62 148 108 56 40 85 217 217 290 24 314 25 353 3 345 46 21 4 26 43 31 352 0 342 55 315 32 70 124 138 81 311 356 48 1 320 347 17 32 3 16 16
96 9 65 120 124 67 67 46 196 192 157 219 51 57 321 358 4 22 24 38 341 353 68 358 318 320 329 320 11 326 52 187 103 31 57 333 32 297 7 19 14 14 27 20 8
90 77 244 359 115 72 72 250 156 173 131 111 132 138 211 310 35 44 13 316 331 345 319 45 339 312 300 342 350 75 107 56 6 67 43 348 71 4 351 353 2 11 8 6 6
70 60 263 95 70 53 167 225 218 220 149 136 168 109 249 242 109 356 273 311 8 311 326 348 114 301 25 25 8 350 17 46 113 102 142 126 286 231 15 344 345 355 356 355 358
104 31 301 101 61 87 146 196 221 137 151 101 110 127 174 190 105 83 139 304 359 307 358 1 359 84 45 262 337 56 66 57 109 263 78 124 242 77 47 346 9 12 355 353 3
141 185 355 113 146 174 219 289 234 131 169 141 176 169 174 140 80 192 254 284 358 19 14 346 338 44 349 358 355 36 2 85 82 73 138 111 245 143 31 11 5 10 6 8 11
102 115 343 39 35 133 154 203 127 301 149 137 140 117 94 80 23 189 119 7 349 3 347 286 71 146 173 183 305 323 94 113 97 91 175 204 272 56 4 13 9 3 359 358 21
77 233 185 207 248 135 104 132 134 168 54 170 5 202 157 118 28 304 301 346 53 357 17 69 103 22 20 10 307 230 303 325 188 184 154 299 261 44 3 42 12 351 359 13 6
143 148 74 155 130 109 222 226 158 173 139 220 188 168 174 155 176 191 140 97 218 352 55 358 184 89 346 340 341 269 228 247 258 164 260 289 282 353 33 66 40 21 10 8 356
163 79 111 160 136 109 204 176 191 139 252 162 161 120 159 200 132 97 89 93 108 75 56 65 97 54 269 337 335 343 231 180 163 178 156 184 198 20 69 70 52 26 18 358 341